This is the latest recevied weather packets stored in our database for station/object KD0MAC. If no packets are shown the sender has not sent any weather packets the latest 10 day(s).
| Time | Temp. | Humidity | Pressure | Rain* | Wind** | Luminosity | Snow |
|---|---|---|---|---|---|---|---|
| 1777335741 | 17.78° C | 40% | 1012.2 hPa | 0 mm | - | 75 W/m² | - |
| 1777335440 | 18.33° C | 39% | 1012.2 hPa | 0 mm | - | 82 W/m² | - |
| 1777335140 | 18.33° C | 39% | 1012.2 hPa | 0 mm | - | 89 W/m² | - |
| 1777334840 | 18.33° C | 40% | 1012.2 hPa | 0 mm | - | 96 W/m² | - |
| 1777334542 | 18.33° C | 39% | 1012.2 hPa | 0 mm | - | 104 W/m² | - |
| 1777334241 | 18.33° C | 39% | 1012.2 hPa | 0 mm | - | 104 W/m² | - |
| 1777333941 | 18.33° C | 40% | 1012.2 hPa | 0 mm | - | 113 W/m² | - |
| 1777333641 | 18.33° C | 39% | 1012.2 hPa | 0 mm | - | 121 W/m² | - |
| 1777333341 | 18.89° C | 38% | 1011.9 hPa | 0 mm | - | 130 W/m² | - |
| 1777333041 | 18.89° C | 39% | 1011.9 hPa | 0 mm | - | 141 W/m² | - |
| 1777332740 | 19.44° C | 39% | 1011.9 hPa | 0 mm | - | 152 W/m² | - |
| 1777332441 | 19.44° C | 39% | 1011.9 hPa | 0 mm | - | 165 W/m² | - |
| 1777332140 | 18.89° C | 38% | 1011.5 hPa | 0 mm | - | 178 W/m² | - |
| 1777331842 | 18.89° C | 38% | 1011.5 hPa | 0 mm | - | 191 W/m² | - |
| 1777331541 | 18.89° C | 38% | 1011.5 hPa | 0 mm | - | 195 W/m² | - |
| 1777331242 | 18.89° C | 39% | 1011.5 hPa | 0 mm | - | 209 W/m² | - |
| 1777330941 | 19.44° C | 38% | 1011.5 hPa | 0 mm | - | 223 W/m² | - |
| 1777330641 | 19.44° C | 39% | 1011.5 hPa | 0 mm | - | 237 W/m² | - |
| 1777330341 | 18.89° C | 38% | 1011.2 hPa | 0 mm | - | 253 W/m² | - |
| 1777330041 | 18.89° C | 38% | 1011.2 hPa | 0 mm | - | 265 W/m² | - |
| 1777329741 | 19.44° C | 37% | 1011.2 hPa | 0 mm | - | 281 W/m² | - |
| 1777329441 | 19.44° C | 37% | 1011.2 hPa | 0 mm | - | 295 W/m² | - |
| 1777329141 | 19.44° C | 39% | 1011.2 hPa | 0 mm | - | 306 W/m² | - |
| 1777328841 | 18.89° C | 39% | 1010.8 hPa | 0 mm | - | 322 W/m² | - |
| 1777328540 | 19.44° C | 40% | 1011.2 hPa | 0 mm | - | 339 W/m² | - |
* Rain latest hour (hover to see other rain measurements)
** Current wind speed in m/s (hover to see current wind gust speed)